Regional Weather Roundup
Issued by NWS

Home | Current Version | Previous Version | Text Only | Print | Product List | Glossary On
Versions: 1 2 3 4 5 6 7 8 9 10 11 12 13 14 15 16 17 18 19 20 21 22 23 24 25 26 27 28 29 30 31 32 33 34 35 36 37 38 39 40 41 42 43 44 45 46 47 48 49 50
000
ASUS44 KJAN 300310
RWRMS

MISSISSIPPI HOURLY WEATHER ROUNDUP
NATIONAL WEATHER SERVICE JACKSON MS
1000 PM CDT MON JUN 29 2015

NOTE: "FAIR: INDICATES FEW OR NO CLOUDS BELOW 12,000 FEET WITH NO
SIGNIFICANT WEATHER AND/OR OBSTRUCTIONS TO VISIBILITY.

MSZ001>002-007>008-010>013-018>021-025>028-034>036-300400-
NORTHWEST MISSISSIPPI

CITY           SKY/WX    TMP DP  RH WIND       PRES   REMARKS
CLARKSDALE     FAIR      82  73  74 S7        29.92R
CLEVELAND      FAIR      78  75  91 SW5       29.91R
GREENWOOD      PTCLDY    78  71  79 S5        29.92R
GREENVILLE     PTCLDY    81  72  74 SW6       29.91R
OLIVE BRANCH   CLEAR     79  73  83 SW5       29.91R
OXFORD         FAIR      77  68  73 SW9       29.94R
TUNICA         PTCLDY    79  70  73 SW7       29.91R
$$

MSZ003>006-009-014>017-022>024-029>033-037>039-300400-
NORTHEAST MISSISSIPPI

CITY           SKY/WX    TMP DP  RH WIND       PRES   REMARKS
COLUMBUS AFB   PTCLDY    77  71  81 S2        29.93R
CORINTH        MOCLDY    79  72  78 SW5       29.90R
GOLDN TRIANGLE MOCLDY    79  68  69 CALM      29.93R
STARKVILLE     FAIR      73  70  88 CALM      29.94R
TUPELO         CLEAR     78  72  81 CALM      29.91R
$$

MSZ040-058-300400-
CENTRAL MISSISSIPPI

CITY           SKY/WX    TMP DP  RH WIND       PRES   REMARKS
JACKSON INTL   CLOUDY    78  69  73 W5        29.94F
JACKSON HAWKNS CLOUDY    77  67  71 SW9       29.94F
MERIDIAN KEY   CLOUDY    77  72  84 S7        29.96R
MERIDIAN NAS   CLOUDY    80  71  74 W5        29.96R
VICKSBURG      CLOUDY    73  69  87 VRB3      29.96S
$$

MSZ059>079-300400-
SOUTH MISSISSIPPI

CITY           SKY/WX    TMP DP  RH WIND       PRES   REMARKS
BROOKHAVEN     FAIR      75  66  73 SW10      30.00F
HATTIESBURG    MOCLDY    78  74  87 S3        29.99R
MCCOMB         CLOUDY    73  66  78 W10G21    30.04R THUNDER
NATCHEZ        CLOUDY    68  63  83 SW14G20   29.98F
PINE BELT      MOCLDY    75  73  94 S5        30.00S
$$

MSZ080>082-300400-
COASTAL MISSISSIPPI

CITY           SKY/WX    TMP DP  RH WIND       PRES   REMARKS
BILOXI         CLEAR     79  74  83 S6        30.00R
PASCAGOULA     PTCLDY    74  72  93 SE3       30.02R
GULFPORT       CLEAR     76  73  91 CALM      30.00R
$$



USA.gov is the U.S. government's official web portal to all federal, state and local government web resources and services.